FBU71A FMEE-VRMM

Flight info

Callsign FBU71A
Flight time N/A
Altitude 34000
Route NIBIS2J NIBIS UM314 XAKUV/N0502F350 R348 UDKIP UT457 BOBOD G454 VRMG/N0511F310 T456 DALSO DALSO1B
Aircraft A35K/H-SDE2E3GHIJ3J4J5LM1ORWXY/LB1D1

Departure

Time N/A
Airport Roland Garros Airport (FMEE)

Arrival

Time 2026-05-01 09:09
Airport Velana International Airport (VRMM)
Time Latitude Longitude Altitude Speed Heading
2026-05-01 07:23 -16.40347 55.57833 34082 ft 507 kts
2026-05-01 07:24 -16.29774 55.57952 34085 ft 506 kts
2026-05-01 07:24 -16.22723 55.58030 34078 ft 506 kts
2026-05-01 07:25 -16.15683 55.58108 34083 ft 506 kts
2026-05-01 07:25 -16.08647 55.58186 34078 ft 506 kts
2026-05-01 07:26 -16.06820 55.58207 34085 ft 506 kts
2026-05-01 07:28 -16.00991 55.58271 34081 ft 506 kts
2026-05-01 07:28 -15.93951 55.58350 34080 ft 506 kts
2026-05-01 07:29 -15.86909 55.58429 34073 ft 506 kts
2026-05-01 07:29 -15.79878 55.58505 34076 ft 506 kts
2026-05-01 07:30 -15.72890 55.58581 34074 ft 505 kts
2026-05-01 07:30 -15.65860 55.58786 34073 ft 506 kts
2026-05-01 07:31 -15.59084 55.60632 34074 ft 506 kts 24°
2026-05-01 07:31 -15.50978 55.67478 34074 ft 508 kts 54°
2026-05-01 07:32 -15.47942 55.74044 34076 ft 508 kts 75°
2026-05-01 07:33 -15.44198 55.84332 34074 ft 509 kts 67°
2026-05-01 07:33 -15.39945 55.94424 34073 ft 510 kts 66°
2026-05-01 07:34 -15.36084 56.03360 34072 ft 510 kts 65°
2026-05-01 07:35 -15.33182 56.10073 34073 ft 511 kts 66°
2026-05-01 07:35 -15.30281 56.16785 34072 ft 511 kts 66°
2026-05-01 07:36 -15.27377 56.23502 34071 ft 511 kts 66°
2026-05-01 07:36 -15.24468 56.30229 34075 ft 512 kts 66°
2026-05-01 07:37 -15.20104 56.40320 34071 ft 512 kts 65°
2026-05-01 07:37 -15.17183 56.47042 34071 ft 512 kts 65°
2026-05-01 07:38 -15.14261 56.53764 34073 ft 513 kts 65°
2026-05-01 07:39 -15.09872 56.63866 34072 ft 513 kts 65°
2026-05-01 07:39 -15.05475 56.73968 34072 ft 513 kts 65°
2026-05-01 07:40 -15.02541 56.80702 34072 ft 513 kts 65°
2026-05-01 07:40 -14.99614 56.87425 34072 ft 513 kts 65°
2026-05-01 07:41 -14.96676 56.94151 34073 ft 513 kts 65°
2026-05-01 07:42 -14.92260 57.04245 34073 ft 514 kts 65°
2026-05-01 07:42 -14.89330 57.10935 34073 ft 514 kts 65°
2026-05-01 07:43 -14.86379 57.17669 34072 ft 514 kts 65°
2026-05-01 07:43 -14.81951 57.27768 34071 ft 514 kts 65°
2026-05-01 07:44 -14.76040 57.41225 34071 ft 514 kts 65°
2026-05-01 07:45 -14.73081 57.47948 34073 ft 514 kts 65°
2026-05-01 07:45 -14.70120 57.54670 34073 ft 514 kts 65°
2026-05-01 07:46 -14.67161 57.61382 34073 ft 514 kts 65°
2026-05-01 07:47 -14.62711 57.71465 34060 ft 514 kts 65°
2026-05-01 07:47 -14.59745 57.78180 34055 ft 514 kts 65°
2026-05-01 07:48 -14.55293 57.88242 34053 ft 514 kts 65°
2026-05-01 07:48 -14.52321 57.94959 34054 ft 514 kts 65°
2026-05-01 07:49 -14.47883 58.04970 34054 ft 514 kts 65°
2026-05-01 07:50 -14.44905 58.11671 34054 ft 513 kts 65°
2026-05-01 07:50 -14.40442 58.21720 34054 ft 514 kts 65°
2026-05-01 07:51 -14.37466 58.28415 34055 ft 514 kts 65°
2026-05-01 07:52 -14.32997 58.38451 34054 ft 513 kts 65°
2026-05-01 07:52 -14.29351 58.46629 34054 ft 514 kts 65°
2026-05-01 07:53 -14.20382 58.66708 34053 ft 514 kts 65°
2026-05-01 07:53 -14.14403 58.80068 34053 ft 513 kts 65°
2026-05-01 07:55 -13.99414 59.13442 34055 ft 513 kts 65°
2026-05-01 07:56 -13.84437 59.46659 34039 ft 513 kts 65°
2026-05-01 07:57 -13.75359 59.66710 34029 ft 514 kts 64°
2026-05-01 07:58 -13.63313 59.93244 34047 ft 514 kts 64°
2026-05-01 07:59 -13.51205 60.19838 34046 ft 514 kts 64°
2026-05-01 08:00 -13.32977 60.59673 34031 ft 514 kts 64°
2026-05-01 08:01 -13.20773 60.86237 34047 ft 515 kts 64°
2026-05-01 08:02 -13.11592 61.06175 34023 ft 515 kts 64°
2026-05-01 08:03 -13.02396 61.26088 34027 ft 515 kts 64°
2026-05-01 08:03 -12.93180 61.46000 34026 ft 515 kts 64°
2026-05-01 08:04 -12.80866 61.72532 34029 ft 515 kts 64°
2026-05-01 08:05 -12.71669 61.92293 34024 ft 514 kts 64°
2026-05-01 08:06 -12.62414 62.12131 34024 ft 514 kts 64°
2026-05-01 08:07 -12.50064 62.38534 34023 ft 514 kts 64°
2026-05-01 08:08 -12.40780 62.58331 34020 ft 514 kts 64°
2026-05-01 08:09 -12.28382 62.84700 34022 ft 514 kts 64°
2026-05-01 08:09 -12.22171 62.97877 34018 ft 514 kts 64°
2026-05-01 08:10 -12.09729 63.24219 34016 ft 514 kts 64°
2026-05-01 08:11 -11.97279 63.50503 33991 ft 514 kts 64°
2026-05-01 08:12 -11.87961 63.70121 33987 ft 512 kts 64°
2026-05-01 08:13 -11.78622 63.89745 33981 ft 513 kts 64°
2026-05-01 08:13 -11.69261 64.09374 33977 ft 513 kts 64°
2026-05-01 08:14 -11.63026 64.22423 33971 ft 512 kts 64°
2026-05-01 08:14 -11.56824 64.35392 33970 ft 511 kts 64°
2026-05-01 08:15 -11.43618 64.52156 33974 ft 510 kts 39°
2026-05-01 08:16 -11.32683 64.61337 33966 ft 509 kts 39°
2026-05-01 08:16 -11.21881 64.70497 33953 ft 508 kts 39°
2026-05-01 08:17 -11.10973 64.79756 33959 ft 507 kts 39°
2026-05-01 08:17 -11.00141 64.88942 33965 ft 506 kts 39°
2026-05-01 08:18 -10.89394 64.98045 33960 ft 505 kts 39°
2026-05-01 08:19 -10.67708 65.16384 33955 ft 505 kts 39°
2026-05-01 08:19 -10.52136 65.29532 33953 ft 504 kts 39°
2026-05-01 08:20 -10.30566 65.47716 33956 ft 504 kts 39°
2026-05-01 08:20 -10.09007 65.65857 33954 ft 503 kts 39°
2026-05-01 08:21 -9.87482 65.83936 33954 ft 502 kts 39°
2026-05-01 08:21 -9.69579 65.98949 33936 ft 502 kts 39°
2026-05-01 08:22 -9.48020 66.17001 33937 ft 503 kts 39°
2026-05-01 08:22 -9.26394 66.35076 33935 ft 505 kts 39°
2026-05-01 08:23 -9.04705 66.53176 33953 ft 505 kts 40°
2026-05-01 08:23 -8.82992 66.71264 33934 ft 507 kts 40°
2026-05-01 08:24 -8.61201 66.89391 33934 ft 507 kts 40°
2026-05-01 08:24 -8.39394 67.07502 33934 ft 507 kts 40°
2026-05-01 08:25 -8.17599 67.25578 33935 ft 506 kts 40°
2026-05-01 08:25 -7.95826 67.43606 33933 ft 505 kts 40°
2026-05-01 08:26 -7.74100 67.61572 33933 ft 505 kts 40°
2026-05-01 08:26 -7.52391 67.79501 33924 ft 504 kts 40°
2026-05-01 08:27 -7.30673 67.97407 33925 ft 504 kts 40°
2026-05-01 08:27 -7.08950 68.15299 33925 ft 504 kts 40°
2026-05-01 08:28 -6.88381 68.34245 33925 ft 501 kts 56°
2026-05-01 08:28 -6.73039 68.57654 33925 ft 501 kts 57°
2026-05-01 08:29 -6.57647 68.81058 33924 ft 501 kts 57°
2026-05-01 08:29 -6.42261 69.04432 33925 ft 501 kts 57°
2026-05-01 08:30 -6.26974 69.27631 33916 ft 501 kts 57°
2026-05-01 08:30 -6.11591 69.50942 33915 ft 500 kts 57°
2026-05-01 08:31 -5.94207 69.72372 33915 ft 500 kts 35°
2026-05-01 08:31 -5.70866 69.87690 33915 ft 501 kts 34°
2026-05-01 08:32 -5.47547 70.03049 33915 ft 501 kts 34°
2026-05-01 08:32 -5.24260 70.18366 33916 ft 500 kts 34°
2026-05-01 08:33 -5.00957 70.33680 33915 ft 501 kts 34°
2026-05-01 08:33 -4.77643 70.48990 33916 ft 500 kts 34°
2026-05-01 08:34 -4.54360 70.64265 33914 ft 500 kts 34°
2026-05-01 08:34 -4.31049 70.79546 33915 ft 500 kts 34°
2026-05-01 08:35 -4.07726 70.94824 33915 ft 501 kts 34°
2026-05-01 08:35 -3.84383 71.10106 33916 ft 501 kts 34°
2026-05-01 08:36 -3.61068 71.25356 33916 ft 501 kts 34°
2026-05-01 08:36 -3.37691 71.40637 33915 ft 501 kts 34°
2026-05-01 08:37 -3.14318 71.55907 33916 ft 501 kts 34°
2026-05-01 08:37 -2.90964 71.71159 33916 ft 501 kts 34°
2026-05-01 08:38 -2.67442 71.86185 33915 ft 503 kts 30°
2026-05-01 08:38 -2.42670 71.99246 33917 ft 503 kts 29°
2026-05-01 08:39 -2.17901 72.12279 33916 ft 503 kts 29°
2026-05-01 08:39 -1.93075 72.25334 33915 ft 504 kts 29°
2026-05-01 08:40 -1.55903 72.44875 33915 ft 502 kts 29°
2026-05-01 08:40 -1.31179 72.57868 33914 ft 501 kts 28°
2026-05-01 08:41 -1.06507 72.70830 33917 ft 500 kts 28°
2026-05-01 08:41 -0.82036 72.83684 33915 ft 500 kts 28°
2026-05-01 08:42 -0.57276 72.96689 33917 ft 500 kts 28°
2026-05-01 08:42 -0.32644 73.09623 33918 ft 500 kts 28°
2026-05-01 08:43 -0.07035 73.19225 33909 ft 503 kts
2026-05-01 08:43 0.20987 73.20639 33905 ft 505 kts
2026-05-01 08:44 0.49050 73.22223 33906 ft 506 kts
2026-05-01 08:44 0.77220 73.23810 33906 ft 507 kts
2026-05-01 08:45 1.05410 73.25390 33905 ft 508 kts
2026-05-01 08:45 1.33629 73.26983 33902 ft 510 kts
2026-05-01 08:46 1.60767 73.28508 33899 ft 511 kts
2026-05-01 08:46 1.89180 73.30111 33893 ft 511 kts
2026-05-01 08:47 2.17620 73.31718 33899 ft 513 kts
2026-05-01 08:47 2.46220 73.33328 33885 ft 515 kts
2026-05-01 08:48 2.74826 73.34943 33893 ft 515 kts
2026-05-01 08:48 3.03484 73.36569 33885 ft 516 kts
2026-05-01 08:49 3.17313 73.37346 32220 ft 515 kts
2026-05-01 08:49 3.21611 73.37590 30963 ft 518 kts
2026-05-01 08:49 3.25199 73.37792 29660 ft 516 kts
2026-05-01 08:49 3.28777 73.37995 28342 ft 514 kts
2026-05-01 08:50 3.32335 73.38195 27091 ft 510 kts
2026-05-01 08:50 3.35811 73.38361 25926 ft 504 kts
2026-05-01 08:50 3.39292 73.38098 24785 ft 499 kts 354°
2026-05-01 08:50 3.42699 73.37620 23698 ft 492 kts 354°
2026-05-01 08:51 3.46055 73.37127 22528 ft 481 kts 354°
2026-05-01 08:51 3.49330 73.36649 21431 ft 468 kts 354°
2026-05-01 08:51 3.52465 73.36192 20974 ft 442 kts 354°
2026-05-01 08:51 3.55437 73.35762 20520 ft 426 kts 354°
2026-05-01 08:52 3.58362 73.35342 20018 ft 422 kts 354°
2026-05-01 08:52 3.61256 73.34929 19539 ft 418 kts 354°
2026-05-01 08:52 3.64121 73.34519 19033 ft 414 kts 354°
2026-05-01 08:52 3.66957 73.34113 18543 ft 410 kts 354°
2026-05-01 08:53 3.69759 73.33712 18060 ft 405 kts 354°
2026-05-01 08:53 3.72561 73.33343 17587 ft 409 kts 355°
2026-05-01 08:53 3.75391 73.33013 16939 ft 409 kts 355°
2026-05-01 08:53 3.78218 73.32695 16315 ft 407 kts 355°
2026-05-01 08:54 3.81022 73.32384 15700 ft 405 kts 355°
2026-05-01 08:54 3.83811 73.32078 15078 ft 401 kts 355°
2026-05-01 08:54 3.86584 73.31793 14461 ft 398 kts 356°
2026-05-01 08:54 3.89332 73.31645 13867 ft 394 kts 358°
2026-05-01 08:55 3.92061 73.31529 13285 ft 391 kts 358°
2026-05-01 08:55 3.94773 73.31424 12770 ft 389 kts 359°
2026-05-01 08:55 3.97462 73.31326 12205 ft 383 kts 359°
2026-05-01 08:55 4.00116 73.31230 11591 ft 380 kts 359°
2026-05-01 08:56 4.02715 73.31140 10985 ft 377 kts 358°
2026-05-01 08:56 4.05362 73.31049 10289 ft 375 kts 358°
2026-05-01 08:56 4.07927 73.30961 9708 ft 371 kts 358°
2026-05-01 08:56 4.10456 73.30874 9440 ft 357 kts 358°
2026-05-01 08:57 4.12892 73.30792 9185 ft 343 kts 358°
2026-05-01 08:57 4.15225 73.30713 8933 ft 329 kts 357°
2026-05-01 08:57 4.17472 73.30636 8691 ft 318 kts 356°
2026-05-01 08:57 4.19643 73.30563 8446 ft 306 kts 356°
2026-05-01 08:58 4.21736 73.30493 8198 ft 296 kts 356°
2026-05-01 08:58 4.23777 73.30423 7855 ft 291 kts 356°
2026-05-01 08:58 4.25789 73.30355 7447 ft 288 kts 356°
2026-05-01 08:58 4.27787 73.30287 7025 ft 286 kts 356°
2026-05-01 08:59 4.29766 73.30220 6599 ft 284 kts 356°
2026-05-01 08:59 4.31728 73.30154 6180 ft 282 kts 356°
2026-05-01 08:59 4.33679 73.30088 5821 ft 276 kts 356°
2026-05-01 08:59 4.35565 73.30023 5650 ft 265 kts 356°
2026-05-01 09:00 4.37372 73.29962 5529 ft 255 kts 356°
2026-05-01 09:00 4.39108 73.29904 5359 ft 244 kts 356°
2026-05-01 09:00 4.40785 73.29909 5100 ft 240 kts
2026-05-01 09:00 4.42383 73.30334 4791 ft 238 kts 25°
2026-05-01 09:01 4.43698 73.31322 4424 ft 239 kts 49°
2026-05-01 09:01 4.44517 73.32749 4285 ft 238 kts 71°
2026-05-01 09:01 4.44753 73.34380 4269 ft 238 kts 94°
2026-05-01 09:01 4.44574 73.36025 4257 ft 238 kts 97°
2026-05-01 09:02 4.44376 73.37674 4257 ft 238 kts 97°
2026-05-01 09:02 4.44178 73.39327 4258 ft 239 kts 97°
2026-05-01 09:02 4.43981 73.40977 4251 ft 238 kts 97°
2026-05-01 09:02 4.43784 73.42623 4254 ft 238 kts 97°
2026-05-01 09:03 4.43638 73.44278 4254 ft 239 kts 89°
2026-05-01 09:03 4.43728 73.45936 4263 ft 238 kts 85°
2026-05-01 09:03 4.43878 73.47529 4264 ft 223 kts 84°
2026-05-01 09:03 4.44033 73.49034 4246 ft 214 kts 84°
2026-05-01 09:04 4.44125 73.50513 4132 ft 213 kts 93°
2026-05-01 09:04 4.43676 73.51911 3986 ft 212 kts 128°
2026-05-01 09:04 4.42565 73.52830 3890 ft 206 kts 154°
2026-05-01 09:04 4.41206 73.53224 3776 ft 203 kts 178°
2026-05-01 09:05 4.39797 73.53256 3649 ft 202 kts 183°
2026-05-01 09:05 4.38391 73.53211 3454 ft 203 kts 185°
2026-05-01 09:05 4.36972 73.53138 3176 ft 205 kts 185°
2026-05-01 09:05 4.35563 73.53088 2878 ft 205 kts 183°
2026-05-01 09:06 4.34144 73.53098 2601 ft 203 kts 181°
2026-05-01 09:06 4.32740 73.53102 2330 ft 200 kts 182°
2026-05-01 09:06 4.31373 73.53097 2070 ft 192 kts 183°
2026-05-01 09:06 4.30086 73.53096 1823 ft 179 kts 183°
2026-05-01 09:07 4.28878 73.53095 1583 ft 168 kts 183°
2026-05-01 09:07 4.27743 73.53094 1362 ft 158 kts 184°
2026-05-01 09:07 4.26666 73.53094 1167 ft 154 kts 184°
2026-05-01 09:07 4.25593 73.53096 963 ft 154 kts 184°
2026-05-01 09:08 4.24523 73.53098 759 ft 154 kts 184°
2026-05-01 09:08 4.23451 73.53095 565 ft 154 kts 183°
2026-05-01 09:08 4.22382 73.53102 356 ft 153 kts 182°
2026-05-01 09:08 4.21319 73.53109 150 ft 153 kts 183°
2026-05-01 09:09 4.20263 73.53096 20 ft 148 kts 180°
2026-05-01 09:09 4.19434 73.53100 18 ft 81 kts 179°
2026-05-01 09:09 4.19139 73.53102 18 ft 15 kts 179°
2026-05-01 09:09 4.19072 73.53103 18 ft 14 kts 179°
2026-05-01 09:10 4.19011 73.53084 18 ft 4 kts 245°
2026-05-01 09:10 4.19008 73.53060 18 ft 2 kts 266°
2026-05-01 09:10 4.19009 73.53037 18 ft 6 kts 272°
2026-05-01 09:10 4.19010 73.52995 18 ft 6 kts 272°
2026-05-01 09:11 4.19012 73.52954 18 ft 6 kts 271°
2026-05-01 09:11 4.18996 73.52923 18 ft 5 kts 218°
2026-05-01 09:11 4.18969 73.52920 18 ft 5 kts 182°
2026-05-01 09:11 4.18927 73.52920 18 ft 7 kts 179°
2026-05-01 09:12 4.18867 73.52921 18 ft 10 kts 179°
2026-05-01 09:12 4.18778 73.52922 18 ft 14 kts 179°
2026-05-01 09:12 4.18684 73.52923 18 ft 13 kts 179°
2026-05-01 09:12 4.18597 73.52925 21 ft 12 kts 179°
2026-05-01 09:13 4.18515 73.52926 18 ft 11 kts 179°
2026-05-01 09:13 4.18465 73.52910 20 ft 5 kts 226°
2026-05-01 09:13 4.18457 73.52885 18 ft 3 kts 261°
2026-05-01 09:13 4.18447 73.52871 19 ft 3 kts 221°
2026-05-01 09:14 4.18420 73.52862 20 ft 6 kts 191°
2026-05-01 09:14 4.18380 73.52860 21 ft 6 kts 180°
2026-05-01 09:14 4.18343 73.52860 18 ft 5 kts 179°
2026-05-01 09:14 4.18309 73.52861 18 ft 5 kts 179°
2026-05-01 09:15 4.18268 73.52861 18 ft 8 kts 179°
2026-05-01 09:15 4.18222 73.52855 18 ft 3 kts 211°
2026-05-01 09:15 4.18218 73.52846 18 ft 2 kts 244°
2026-05-01 09:15 4.18214 73.52824 18 ft 3 kts 262°
2026-05-01 09:16 4.18213 73.52801 21 ft 3 kts 269°
2026-05-01 09:16 4.18213 73.52782 20 ft 3 kts 269°
2026-05-01 09:16 4.18213 73.52774 18 ft 0 kts 269°